This demonstration page uses our WeatherBlox Daily Observations layout. Learn more.

Left ArrowRight Arrow

40.92945, -100.16068

Hourly Observations for June 3, 2020

Temp ( °F °C ) Dew Point ( °F °C ) Humidity (%) Winds ( mph kmh ) Pressure ( in mb ) Visibility ( mi km ) Precip ( " mm )
12:15 am 00:15 Clear 70 21.2 66 19 87 87 SSW 3 6 29.94 1014 10 16.0934 0 0
12:35 am 00:35 Clear 69 20.4 66 18.9 91 91 Calm 29.95 1014 10 16.0934 0 0
12:55 am 00:55 Clear 68 20.2 66 18.7 91 91 Calm 29.95 1014 10 16.0934 0 0
1:15 am 01:15 Clear 67 19.7 65 18.6 93 93 NE 5 7 29.95 1014 10 16.0934 0 0
1:35 am 01:35 Clear 68 20.2 66 18.8 92 92 N 8 13 29.94 1014 10 16.0934 0 0
1:55 am 01:55 Clear 70 21 64 17.5 81 81 N 6 9 29.93 1014 10 16.0934 0 0
2:15 am 02:15 Clear 68 20 61 16.1 78 78 N 7 11 29.93 1014 10 16.0934 0 0
2:35 am 02:35 Clear 68 20.2 59 15.2 73 73 N 8 13 29.9 1013 10 16.0934 0 0
2:55 am 02:55 Clear 66 19 60 15.4 80 80 N 7 11 29.91 1013 10 16.0934 0 0
3:15 am 03:15 Clear 66 18.7 59 14.8 78 78 N 7 11 29.91 1013 10 16.0934 0 0
3:35 am 03:35 Clear 64 17.8 58 14.5 81 81 NNE 6 9 29.91 1013 10 16.0934 0 0
3:55 am 03:55 Clear 64 17.8 57 14 79 79 NNE 8 13 29.91 1013 10 16.0934 0 0
4:15 am 04:15 Clear 65 18.2 57 14 77 77 N 9 15 29.91 1013 10 16.0934 0 0
4:35 am 04:35 Clear 65 18.6 57 14 75 75 N 8 13 29.89 1012 10 16.0934 0 0
4:55 am 04:55 Clear 64 18 57 14 78 78 N 10 17 29.9 1013 10 16.0934 0 0
5:15 am 05:15 Clear 64 17.7 57 13.7 78 78 NNE 9 15 29.89 1012 10 16.0934 0 0
5:35 am 05:35 Clear 65 18.1 56 13.5 75 75 NNE 10 17 29.88 1012 10 16.0934 0 0
5:55 am 05:55 Clear 65 18.4 56 13.1 71 71 NNE 9 15 29.89 1012 10 16.0934 0 0
6:15 am 06:15 Sunny 64 17.8 55 13 74 74 NNE 7 11 29.89 1012 10 16.0934 0 0
6:35 am 06:35 Sunny 63 17.2 55 12.9 76 76 Calm 29.91 1013 10 16.0934 0 0
6:55 am 06:55 Sunny 64 17.5 56 13.5 78 78 S 5 7 29.93 1014 10 16.0934 0 0
7:15 am 07:15 Sunny 63 17.2 57 14 82 82 WSW 6 9 29.98 1015 10 16.0934 0 0
7:35 am 07:35 Sunny 65 18.1 58 14.6 80 80 NNW 6 9 29.96 1015 10 16.0934 0 0
7:55 am 07:55 Sunny 67 19.5 59 15.1 76 76 NW 3 6 29.96 1014 10 16.0934 0 0
8:15 am 08:15 Sunny 69 20.5 59 15.1 71 71 WNW 5 7 29.95 1014 10 16.0934 0 0
8:35 am 08:35 Sunny 70 21.1 58 14.4 66 66 Calm 29.92 1013 10 16.0934 0 0
8:55 am 08:55 Sunny 71 21.9 58 14.7 64 64 Calm 29.92 1013 10 16.0934 0 0
9:15 am 09:15 Sunny 72 22.4 56 13.5 57 57 Calm 29.91 1013 10 16.0934 0 0
9:35 am 09:35 Sunny 73 23 57 13.8 56 56 Calm 29.91 1013 10 16.0934 0 0
9:55 am 09:55 Sunny 74 23.3 56 13.6 55 55 Calm 29.9 1013 10 16.0934 0 0
10:15 am 10:15 Sunny 75 24.1 57 13.8 53 53 Calm 29.89 1012 10 16.0934 0 0
10:35 am 10:35 Sunny 77 24.9 57 13.7 50 50 Calm 29.88 1012 10 16.0934 0 0
10:55 am 10:55 Sunny 78 25.7 59 15.2 52 52 ESE 6 9 29.86 1011 10 16.0934 0 0
11:15 am 11:15 Sunny 79 26 59 15.2 51 51 ESE 7 11 29.85 1011 10 16.0934 0 0
11:35 am 11:35 Sunny 80 26.5 59 15 49 49 SE 10 17 29.84 1010 10 16.0934 0 0
11:55 am 11:55 Sunny 81 27 58 14.4 46 46 SSE 10 17 29.83 1010 10 16.0934 0 0
12:15 pm 12:15 Sunny 81 27.1 58 14.4 46 46 SE 12 19 29.82 1010 10 16.0934 0 0
12:35 pm 12:35 Sunny 82 27.6 58 14.5 45 45 SE 7 11 29.82 1010 10 16.0934 0 0
12:55 pm 12:55 Sunny 82 28 59 14.8 45 45 SE 10 17 29.81 1009 10 16.0934 0 0
1:15 pm 13:15 Sunny 83 28.5 58 14.7 43 43 SE 12 19 29.79 1009 10 16.0934 0 0
1:35 pm 13:35 Sunny 85 29.2 59 14.9 42 42 SSE 10 17 29.78 1008 10 16.0934 0 0
1:55 pm 13:55 Sunny 85 29.4 60 15.8 44 44 S 10 17 29.76 1008 10 16.0934 0 0
2:15 pm 14:15 Sunny 85 29.6 61 15.9 44 44 SSE 9 15 29.75 1008 10 16.0934 0 0
2:35 pm 14:35 Sunny 86 30.2 62 16.5 44 44 S 12 19 29.74 1007 10 16.0934 0 0
2:55 pm 14:55 Sunny 87 30.5 61 16.2 42 42 SSW 10 17 29.73 1007 10 16.0934 0 0
3:15 pm 15:15 Sunny 87 30.7 60 15.8 41 41 SSW 8 13 29.72 1007 10 16.0934 0 0
3:35 pm 15:35 Partly Cloudy 88 30.9 61 16.3 41 41 SSE 10 17 29.71 1006 10 16.0934 0 0
3:55 pm 15:55 Sunny 88 31.1 59 14.9 37 37 SSW 8 13 29.7 1006 10 16.0934 0 0
4:15 pm 16:15 Sunny 88 31 61 16 40 40 S 9 15 29.69 1005 10 16.0934 0 0
4:35 pm 16:35 Sunny 88 31 60 15.4 39 39 SW 10 17 29.68 1005 10 16.0934 0 0
4:55 pm 16:55 Sunny 87 30.8 59 15.2 39 39 SW 8 13 29.67 1005 10 16.0934 0 0
5:15 pm 17:15 Sunny 88 31.1 61 16 40 40 S 7 11 29.66 1004 10 16.0934 0 0
5:35 pm 17:35 Sunny 88 31 61 16.3 41 41 S 9 15 29.66 1004 10 16.0934 0 0
5:55 pm 17:55 Sunny 84 29.1 61 15.9 45 45 SSW 8 13 29.67 1005 10 16.0934 0 0
6:15 pm 18:15 Sunny 85 29.7 62 16.5 45 45 SSW 12 19 29.65 1004 10 16.0934 0 0
6:35 pm 18:35 Sunny 87 30.8 62 16.9 43 43 S 8 13 29.63 1004 10 16.0934 0 0
6:55 pm 18:55 Sunny 84 29 60 15.7 44 44 SSW 9 15 29.65 1004 10 16.0934 0 0
7:15 pm 19:15 Sunny 82 27.8 64 17.7 54 54 S 8 13 29.65 1004 10 16.0934 0 0
7:35 pm 19:35 Sunny 80 26.6 64 17.8 59 59 S 8 13 29.67 1005 10 16.0934 0 0
7:55 pm 19:55 Sunny 78 25.8 63 17.2 59 59 SSE 8 13 29.66 1005 10 16.0934 0 0
8:15 pm 20:15 Mostly Cloudy 77 25.2 65 18.3 66 66 E 3 6 29.7 1006 3 4.82802 0.09 2.286
8:35 pm 20:35 Cloudy 72 22 61 15.9 68 68 WNW 15 24 29.79 1009 2.5 4.02335 0.22 5.588
8:55 pm 20:55 Cloudy 67 19.5 62 16.5 83 83 W 9 15 29.82 1010 10 16.0934 0.22 5.588
9:15 pm 21:15 Partly Cloudy 69 20.8 59 14.9 69 69 SW 18 30 29.75 1007 10 16.0934 0 0
9:35 pm 21:35 Partly Cloudy 69 20.5 59 15 71 71 WSW 7 11 29.76 1008 10 16.0934 0 0
9:55 pm 21:55 Mostly Cloudy 69 20.3 61 16 76 76 NNE 7 11 29.8 1009 10 16.0934 0 0
10:15 pm 22:15 Partly Cloudy 67 19.7 63 17 85 85 E 6 9 29.8 1009 10 16.0934 0 0
10:35 pm 22:35 Clear 67 19.4 62 16.4 83 83 E 6 9 29.8 1009 10 16.0934 0 0
10:55 pm 22:55 Clear 65 18.6 61 16.2 86 86 E 3 6 29.82 1010 10 16.0934 0 0
11:15 pm 23:15 Clear 65 18.3 62 16.7 90 90 ESE 5 7 29.82 1010 10 16.0934 0 0
11:35 pm 23:35 Clear 64 17.6 62 16.4 93 93 S 5 7 29.8 1009 10 16.0934 0 0
11:55 pm 23:55 Clear 63 17.1 61 16.3 95 95 WNW 3 6 29.81 1009 10 16.0934 0 0

Powered by AerisWeather